| time (UTC) | temp F | wind direction | speed knots | gust knots | rain 1hr in | rain 24hr in | rain mn in | humidity % | barometer mb |
| 20260508210027 | 70 | 82 | 1.7 | 2.6 | 0.00 | 0.00 | 0.00 | 48 | 1015.0 |
| 20260508205524 | 70 | 92 | 1.7 | 2.6 | 0.00 | 0.00 | 0.00 | 50 | 1014.8 |
| 20260508205020 | 70 | 82 | 1.7 | 1.7 | 0.00 | 0.00 | 0.00 | 47 | 1014.9 |
| 20260508204517 | 70 | 91 | 1.7 | 1.7 | 0.00 | 0.00 | 0.00 | 47 | 1015.0 |
| 20260508204013 | 70 | 94 | 1.7 | 2.6 | 0.00 | 0.00 | 0.00 | 47 | 1015.0 |
| 20260508203509 | 70 | 97 | 3.5 | 3.5 | 0.00 | 0.00 | 0.00 | 50 | 1015.0 |
| 20260508203005 | 70 | 77 | 2.6 | 2.6 | 0.00 | 0.00 | 0.00 | 48 | 1015.0 |
| 20260508202502 | 70 | 124 | 2.6 | 3.5 | 0.00 | 0.00 | 0.00 | 45 | 1014.9 |
| 20260508201959 | 71 | 39 | 2.6 | 2.6 | 0.00 | 0.00 | 0.00 | 42 | 1015.1 |
| 20260508201456 | 72 | 116 | 0.0 | 2.6 | 0.00 | 0.00 | 0.00 | 42 | 1015.5 |
| 20260508200952 | 72 | 77 | 1.7 | 2.6 | 0.00 | 0.00 | 0.00 | 41 | 1015.2 |
| 20260508200450 | 73 | 123 | 3.5 | 4.3 | 0.00 | 0.00 | 0.00 | 41 | 1015.6 |
| 20260508195944 | 73 | 135 | 1.7 | 2.6 | 0.00 | 0.00 | 0.00 | 43 | 1015.4 |
| 20260508195442 | 73 | 4 | 0.0 | 2.6 | 0.00 | 0.00 | 0.00 | 43 | 1015.7 |
| 20260508194938 | 73 | 104 | 1.7 | 2.6 | 0.00 | 0.00 | 0.00 | 43 | 1015.6 |
| 20260508194435 | 73 | 49 | 1.7 | 2.6 | 0.00 | 0.00 | 0.00 | 43 | 1015.8 |
| 20260508193932 | 74 | 22 | 1.7 | 2.6 | 0.00 | 0.00 | 0.00 | 39 | 1015.9 |
| 20260508193430 | 73 | 92 | 1.7 | 2.6 | 0.00 | 0.00 | 0.00 | 42 | 1015.9 |
| 20260508192925 | 74 | 159 | 2.6 | 3.5 | 0.00 | 0.00 | 0.00 | 38 | 1015.9 |
| 20260508192422 | 74 | 105 | 0.9 | 1.7 | 0.00 | 0.00 | 0.00 | 41 | 1015.9 |
| 20260508191919 | 73 | 76 | 2.6 | 5.2 | 0.00 | 0.00 | 0.00 | 42 | 1016.0 |
| 20260508191417 | 72 | 61 | 1.7 | 3.5 | 0.00 | 0.00 | 0.00 | 40 | 1016.3 |
| 20260508190913 | 72 | 54 | 0.0 | 2.6 | 0.00 | 0.00 | 0.00 | 41 | 1016.5 |
| 20260508190410 | 72 | 294 | 1.7 | 3.5 | 0.00 | 0.00 | 0.00 | 39 | 1016.5 |
| 20260508185906 | 71 | 39 | 1.7 | 3.5 | 0.00 | 0.00 | 0.00 | 44 | 1016.1 |
| 20260508185404 | 70 | 95 | 2.6 | 3.5 | 0.00 | 0.00 | 0.00 | 42 | 1016.4 |
| 20260508184901 | 69 | 35 | 1.7 | 3.5 | 0.00 | 0.00 | 0.00 | 42 | 1016.7 |
| 20260508184359 | 70 | 88 | 2.6 | 3.5 | 0.00 | 0.00 | 0.00 | 46 | 1016.6 |
| 20260508183855 | 70 | 115 | 1.7 | 2.6 | 0.00 | 0.00 | 0.00 | 42 | 1016.6 |
| 20260508183352 | 69 | 76 | 1.7 | 2.6 | 0.00 | 0.00 | 0.00 | 46 | 1016.8 |
| 20260508182847 | 70 | 74 | 2.6 | 2.6 | 0.00 | 0.00 | 0.00 | 40 | 1016.7 |
| 20260508182344 | 71 | 80 | 1.7 | 3.5 | 0.00 | 0.00 | 0.00 | 38 | 1016.5 |
| 20260508181840 | 72 | 91 | 1.7 | 2.6 | 0.00 | 0.00 | 0.00 | 35 | 1016.6 |
| 20260508181337 | 71 | 82 | 1.7 | 2.6 | 0.00 | 0.00 | 0.00 | 40 | 1016.9 |
| 20260508180834 | 71 | 78 | 2.6 | 3.5 | 0.00 | 0.00 | 0.00 | 37 | 1016.9 |
| 20260508180331 | 71 | 84 | 1.7 | 2.6 | 0.00 | 0.00 | 0.00 | 39 | 1017.1 |
| 20260508175827 | 69 | 345 | 1.7 | 1.7 | 0.00 | 0.00 | 0.00 | 40 | 1017.1 |
| 20260508175323 | 68 | 125 | 1.7 | 3.5 | 0.00 | 0.00 | 0.00 | 40 | 1017.2 |
| 20260508174822 | 69 | 158 | 3.5 | 3.5 | 0.00 | 0.00 | 0.00 | 39 | 1017.2 |
| 20260508174319 | 69 | 125 | 1.7 | 2.6 | 0.00 | 0.00 | 0.00 | 40 | 1017.1 |
| 20260508173815 | 69 | 135 | 1.7 | 2.6 | 0.00 | 0.00 | 0.00 | 39 | 1017.2 |
| 20260508173312 | 69 | 342 | 2.6 | 2.6 | 0.00 | 0.00 | 0.00 | 42 | 1017.4 |
| 20260508172808 | 68 | 113 | 1.7 | 2.6 | 0.00 | 0.00 | 0.00 | 43 | 1017.4 |
| 20260508172307 | 68 | 5 | 0.9 | 3.5 | 0.00 | 0.00 | 0.00 | 43 | 1017.5 |
| 20260508171801 | 68 | 140 | 1.7 | 2.6 | 0.00 | 0.00 | 0.00 | 41 | 1017.5 |
| 20260508171258 | 68 | 76 | 1.7 | 4.3 | 0.00 | 0.00 | 0.00 | 42 | 1017.7 |
| 20260508170755 | 68 | 68 | 2.6 | 3.5 | 0.00 | 0.00 | 0.00 | 45 | 1017.7 |
| 20260508170253 | 67 | 66 | 2.6 | 3.5 | 0.00 | 0.00 | 0.00 | 46 | 1017.9 |
| 20260508165749 | 67 | 350 | 1.7 | 3.5 | 0.00 | 0.00 | 0.00 | 45 | 1018.1 |
| 20260508165247 | 67 | 93 | 1.7 | 2.6 | 0.00 | 0.00 | 0.00 | 43 | 1018.2 |
| 20260508164743 | 67 | 57 | 2.6 | 3.5 | 0.00 | 0.00 | 0.00 | 43 | 1018.1 |
| 20260508164239 | 66 | 63 | 1.7 | 2.6 | 0.00 | 0.00 | 0.00 | 47 | 1018.2 |
| 20260508163738 | 66 | 50 | 0.9 | 2.6 | 0.00 | 0.00 | 0.00 | 45 | 1018.2 |
| 20260508163235 | 65 | 99 | 1.7 | 3.5 | 0.00 | 0.00 | 0.00 | 45 | 1018.4 |
| 20260508162730 | 65 | 358 | 1.7 | 2.6 | 0.00 | 0.00 | 0.00 | 42 | 1018.4 |
| 20260508162228 | 65 | 71 | 2.6 | 3.5 | 0.00 | 0.00 | 0.00 | 45 | 1018.3 |
| 20260508161725 | 65 | 55 | 1.7 | 2.6 | 0.00 | 0.00 | 0.00 | 45 | 1018.5 |
| 20260508161222 | 64 | 53 | 0.9 | 2.6 | 0.00 | 0.00 | 0.00 | 43 | 1018.5 |
| 20260508160720 | 64 | 50 | 2.6 | 2.6 | 0.00 | 0.00 | 0.00 | 49 | 1018.7 |
| 20260508160218 | 64 | 108 | 0.9 | 2.6 | 0.00 | 0.00 | 0.00 | 44 | 1018.8 |
| 20260508155714 | 63 | 55 | 1.7 | 3.5 | 0.00 | 0.00 | 0.00 | 50 | 1018.7 |
| 20260508155211 | 63 | 18 | 2.6 | 2.6 | 0.00 | 0.00 | 0.00 | 48 | 1018.7 |
| 20260508154708 | 62 | 56 | 0.0 | 2.6 | 0.00 | 0.00 | 0.00 | 51 | 1019.1 |
| 20260508154205 | 62 | 147 | 3.5 | 4.3 | 0.00 | 0.00 | 0.00 | 47 | 1019.2 |
| 20260508153702 | 62 | 32 | 0.0 | 2.6 | 0.00 | 0.00 | 0.00 | 54 | 1019.0 |
| 20260508153159 | 62 | 113 | 1.7 | 2.6 | 0.00 | 0.00 | 0.00 | 53 | 1019.1 |
| 20260508152655 | 62 | 67 | 1.7 | 2.6 | 0.00 | 0.00 | 0.00 | 53 | 1019.0 |
| 20260508152151 | 62 | 124 | 1.7 | 2.6 | 0.00 | 0.00 | 0.00 | 54 | 1018.9 |
| 20260508151648 | 61 | 285 | 0.9 | 2.6 | 0.00 | 0.00 | 0.00 | 56 | 1019.1 |
| 20260508151144 | 61 | 154 | 0.9 | 2.6 | 0.00 | 0.00 | 0.00 | 55 | 1018.9 |
| 20260508150642 | 60 | 84 | 0.9 | 2.6 | 0.00 | 0.00 | 0.00 | 57 | 1019.0 |
| 20260508150138 | 60 | 97 | 0.9 | 2.6 | 0.00 | 0.00 | 0.00 | 55 | 1019.1 |
| 20260508145634 | 60 | 140 | 1.7 | 3.5 | 0.00 | 0.00 | 0.00 | 56 | 1019.2 |
| 20260508145130 | 60 | 78 | 1.7 | 1.7 | 0.00 | 0.00 | 0.00 | 59 | 1019.2 |
| 20260508144628 | 59 | 16 | 1.7 | 2.6 | 0.00 | 0.00 | 0.00 | 60 | 1019.2 |
| 20260508144126 | 59 | 55 | 1.7 | 2.6 | 0.00 | 0.00 | 0.00 | 60 | 1019.3 |
| 20260508143623 | 59 | 10 | 0.9 | 2.6 | 0.00 | 0.00 | 0.00 | 60 | 1019.2 |
| 20260508143120 | 58 | 344 | 0.0 | 2.6 | 0.00 | 0.00 | 0.00 | 61 | 1019.5 |
| 20260508142616 | 58 | 138 | 2.6 | 2.6 | 0.00 | 0.00 | 0.00 | 61 | 1019.4 |
| 20260508142113 | 58 | 64 | 1.7 | 2.6 | 0.00 | 0.00 | 0.00 | 62 | 1019.3 |
| 20260508141610 | 57 | 79 | 1.7 | 3.5 | 0.00 | 0.00 | 0.00 | 59 | 1019.4 |
| 20260508141107 | 57 | 68 | 1.7 | 1.7 | 0.00 | 0.00 | 0.00 | 61 | 1019.4 |
| 20260508140604 | 56 | 57 | 3.5 | 3.5 | 0.00 | 0.00 | 0.00 | 61 | 1019.4 |
| 20260508140101 | 56 | 52 | 0.9 | 1.7 | 0.00 | 0.00 | 0.00 | 58 | 1019.5 |
| 20260508135556 | 56 | 57 | 2.6 | 2.6 | 0.00 | 0.00 | 0.00 | 61 | 1019.4 |
| 20260508135053 | 55 | 43 | 1.7 | 2.6 | 0.00 | 0.00 | 0.00 | 71 | 1019.4 |
| 20260508134550 | 55 | 51 | 1.7 | 2.6 | 0.00 | 0.00 | 0.00 | 67 | 1019.3 |
| 20260508134047 | 55 | 68 | 1.7 | 1.7 | 0.00 | 0.00 | 0.00 | 67 | 1019.3 |
| 20260508133543 | 54 | 68 | 1.7 | 2.6 | 0.00 | 0.00 | 0.00 | 69 | 1019.2 |
| 20260508133041 | 54 | 66 | 1.7 | 1.7 | 0.00 | 0.00 | 0.00 | 68 | 1019.3 |
| 20260508132539 | 54 | 87 | 1.7 | 2.6 | 0.00 | 0.00 | 0.00 | 69 | 1019.6 |
| 20260508132035 | 53 | 73 | 1.7 | 2.6 | 0.00 | 0.00 | 0.00 | 75 | 1019.5 |
| 20260508131530 | 53 | 81 | 1.7 | 1.7 | 0.00 | 0.00 | 0.00 | 75 | 1019.4 |
| 20260508131027 | 52 | 83 | 1.7 | 2.6 | 0.00 | 0.00 | 0.00 | 76 | 1019.3 |
| 20260508130525 | 51 | 78 | 1.7 | 1.7 | 0.00 | 0.00 | 0.00 | 77 | 1019.3 |
| 20260508130020 | 51 | 66 | 1.7 | 2.6 | 0.00 | 0.00 | 0.00 | 78 | 1019.2 |
| 20260508125516 | 50 | 75 | 0.9 | 1.7 | 0.00 | 0.00 | 0.00 | 81 | 1019.2 |
| 20260508125015 | 50 | 82 | 1.7 | 1.7 | 0.00 | 0.00 | 0.00 | 83 | 1019.2 |
| 20260508124512 | 50 | 78 | 1.7 | 1.7 | 0.00 | 0.00 | 0.00 | 83 | 1019.0 |
| 20260508124009 | 49 | 94 | 0.9 | 1.7 | 0.00 | 0.00 | 0.00 | 83 | 1019.2 |
| 20260508123508 | 49 | 95 | 1.7 | 1.7 | 0.00 | 0.00 | 0.00 | 84 | 1019.0 |
| 20260508123004 | 48 | 84 | 1.7 | 1.7 | 0.00 | 0.00 | 0.00 | 84 | 1019.1 |
| 20260508122501 | 48 | 78 | 1.7 | 1.7 | 0.00 | 0.00 | 0.00 | 85 | 1018.9 |
| 20260508121958 | 48 | 78 | 1.7 | 1.7 | 0.00 | 0.00 | 0.00 | 85 | 1019.1 |
| 20260508121456 | 47 | 78 | 1.7 | 1.7 | 0.00 | 0.00 | 0.00 | 88 | 1019.1 |
| 20260508120953 | 46 | 67 | 1.7 | 1.7 | 0.00 | 0.00 | 0.00 | 91 | 1019.0 |
| 20260508120451 | 46 | 60 | 1.7 | 1.7 | 0.00 | 0.00 | 0.00 | 91 | 1019.0 |
| 20260508115949 | 45 | 76 | 1.7 | 1.7 | 0.00 | 0.00 | 0.00 | 92 | 1018.8 |
| 20260508115446 | 45 | 62 | 1.7 | 1.7 | 0.00 | 0.00 | 0.00 | 93 | 1018.8 |
| 20260508114943 | 45 | 93 | 1.7 | 1.7 | 0.00 | 0.00 | 0.00 | 94 | 1018.8 |
| 20260508114440 | 44 | 13 | 1.7 | 1.7 | 0.00 | 0.00 | 0.00 | 94 | 1018.7 |
| 20260508113936 | 44 | 15 | 0.9 | 1.7 | 0.00 | 0.00 | 0.00 | 93 | 1018.6 |
| 20260508113434 | 44 | 81 | 0.9 | 1.7 | 0.00 | 0.00 | 0.00 | 93 | 1018.7 |
| 20260508112931 | 44 | 72 | 0.9 | 1.7 | 0.00 | 0.00 | 0.00 | 93 | 1018.5 |
| 20260508112428 | 44 | 72 | 0.9 | 1.7 | 0.00 | 0.00 | 0.00 | 93 | 1018.4 |
| 20260508111924 | 44 | 80 | 0.9 | 1.7 | 0.00 | 0.00 | 0.00 | 93 | 1018.4 |
| 20260508111421 | 44 | 86 | 1.7 | 1.7 | 0.00 | 0.00 | 0.00 | 93 | 1018.2 |
| 20260508110918 | 44 | 80 | 1.7 | 1.7 | 0.00 | 0.00 | 0.00 | 92 | 1018.0 |
| 20260508110416 | 44 | 31 | 1.7 | 2.6 | 0.00 | 0.00 | 0.00 | 92 | 1018.0 |
| 20260508105915 | 44 | 54 | 1.7 | 1.7 | 0.00 | 0.00 | 0.00 | 92 | 1018.0 |
| 20260508105412 | 45 | 31 | 1.7 | 1.7 | 0.00 | 0.00 | 0.00 | 91 | 1017.9 |
| 20260508104909 | 45 | 58 | 1.7 | 1.7 | 0.00 | 0.00 | 0.00 | 91 | 1018.2 |
| 20260508104407 | 45 | 31 | 0.0 | 1.7 | 0.00 | 0.00 | 0.00 | 90 | 1017.9 |
| 20260508103904 | 45 | 80 | 0.0 | 1.7 | 0.00 | 0.00 | 0.00 | 90 | 1017.7 |
| 20260508103400 | 45 | 112 | 1.7 | 1.7 | 0.00 | 0.00 | 0.00 | 90 | 1017.5 |
| 20260508102858 | 46 | 64 | 0.9 | 1.7 | 0.00 | 0.00 | 0.00 | 89 | 1017.6 |
| 20260508102356 | 46 | 75 | 0.9 | 0.9 | 0.00 | 0.00 | 0.00 | 88 | 1017.3 |
| 20260508101853 | 46 | 49 | 1.7 | 1.7 | 0.00 | 0.00 | 0.00 | 87 | 1017.2 |
| 20260508101350 | 47 | 0 | 0.0 | 1.7 | 0.00 | 0.00 | 0.00 | 85 | 1017.2 |
| 20260508100848 | 47 | 60 | 1.7 | 2.6 | 0.00 | 0.00 | 0.00 | 85 | 1017.2 |
| 20260508100347 | 48 | 89 | 1.7 | 2.6 | 0.00 | 0.00 | 0.00 | 83 | 1017.0 |
| 20260508095841 | 48 | 67 | 0.9 | 1.7 | 0.00 | 0.00 | 0.00 | 82 | 1016.9 |
| 20260508095340 | 49 | 112 | 1.7 | 2.6 | 0.00 | 0.00 | 0.00 | 81 | 1016.9 |
| 20260508094836 | 49 | 122 | 1.7 | 1.7 | 0.00 | 0.00 | 0.00 | 79 | 1016.8 |
| 20260508094333 | 50 | 19 | 1.7 | 1.7 | 0.00 | 0.00 | 0.00 | 78 | 1016.8 |
| 20260508093830 | 51 | 88 | 1.7 | 2.6 | 0.00 | 0.00 | 0.00 | 76 | 1017.0 |
| 20260508093327 | 51 | 37 | 0.9 | 1.7 | 0.00 | 0.00 | 0.00 | 74 | 1016.9 |
| 20260508092825 | 52 | 101 | 1.7 | 2.6 | 0.00 | 0.00 | 0.00 | 73 | 1016.7 |
| 20260508092323 | 53 | 87 | 1.7 | 1.7 | 0.00 | 0.00 | 0.00 | 66 | 1016.8 |
| 20260508091821 | 53 | 42 | 1.7 | 2.6 | 0.00 | 0.00 | 0.00 | 70 | 1016.9 |
| 20260508091317 | 53 | 338 | 2.6 | 2.6 | 0.00 | 0.00 | 0.00 | 62 | 1016.8 |
| 20260508090815 | 53 | 61 | 1.7 | 2.6 | 0.00 | 0.00 | 0.00 | 69 | 1016.7 |
| 20260508090313 | 53 | 59 | 1.7 | 2.6 | 0.00 | 0.00 | 0.00 | 71 | 1016.7 |
| 20260508085808 | 53 | 46 | 1.7 | 2.6 | 0.00 | 0.00 | 0.00 | 65 | 1016.9 |
| 20260508085307 | 53 | 18 | 1.7 | 2.6 | 0.00 | 0.00 | 0.00 | 65 | 1016.7 |
| 20260508084801 | 54 | 21 | 1.7 | 3.5 | 0.00 | 0.00 | 0.00 | 66 | 1016.8 |
| 20260508084259 | 54 | 11 | 1.7 | 3.5 | 0.00 | 0.00 | 0.00 | 65 | 1016.6 |
| 20260508083756 | 54 | 24 | 1.7 | 2.6 | 0.00 | 0.00 | 0.00 | 66 | 1016.4 |
| 20260508083254 | 54 | 33 | 2.6 | 2.6 | 0.00 | 0.00 | 0.00 | 66 | 1016.5 |
| 20260508082753 | 54 | 16 | 1.7 | 2.6 | 0.00 | 0.00 | 0.00 | 66 | 1016.5 |
| 20260508082251 | 54 | 7 | 1.7 | 2.6 | 0.00 | 0.00 | 0.00 | 67 | 1016.6 |
| 20260508081748 | 54 | 52 | 1.7 | 3.5 | 0.00 | 0.00 | 0.00 | 64 | 1016.5 |
| 20260508081245 | 55 | 25 | 2.6 | 3.5 | 0.00 | 0.00 | 0.00 | 65 | 1016.4 |
| 20260508080742 | 54 | 34 | 2.6 | 3.5 | 0.00 | 0.00 | 0.00 | 68 | 1016.4 |
| 20260508080240 | 55 | 29 | 2.6 | 3.5 | 0.00 | 0.00 | 0.00 | 66 | 1016.3 |
| 20260508075736 | 55 | 16 | 2.6 | 3.5 | 0.00 | 0.00 | 0.00 | 66 | 1016.2 |
| 20260508075233 | 55 | 33 | 2.6 | 4.3 | 0.00 | 0.00 | 0.00 | 65 | 1016.3 |
| 20260508074731 | 55 | 2 | 3.5 | 5.2 | 0.00 | 0.00 | 0.00 | 66 | 1016.2 |
| 20260508074229 | 55 | 40 | 3.5 | 7.8 | 0.00 | 0.00 | 0.00 | 66 | 1016.3 |
| 20260508073725 | 55 | 334 | 4.3 | 5.2 | 0.00 | 0.00 | 0.00 | 68 | 1016.2 |
| 20260508073223 | 55 | 354 | 3.5 | 4.3 | 0.00 | 0.00 | 0.00 | 66 | 1016.1 |
| 20260508072719 | 55 | 340 | 0.0 | 5.2 | 0.00 | 0.00 | 0.00 | 67 | 1016.1 |
| 20260508072216 | 55 | 350 | 2.6 | 5.2 | 0.00 | 0.00 | 0.00 | 67 | 1015.9 |
| 20260508071713 | 55 | 335 | 0.9 | 4.3 | 0.00 | 0.00 | 0.00 | 68 | 1015.8 |
| 20260508071212 | 55 | 0 | 2.6 | 4.3 | 0.00 | 0.00 | 0.00 | 67 | 1015.8 |
| 20260508070708 | 55 | 10 | 1.7 | 4.3 | 0.00 | 0.00 | 0.00 | 66 | 1016.0 |
| 20260508070207 | 55 | 321 | 4.3 | 6.1 | 0.00 | 0.00 | 0.00 | 66 | 1015.7 |
| 20260508065704 | 55 | 335 | 2.6 | 3.5 | 0.00 | 0.00 | 0.00 | 67 | 1015.9 |
| 20260508065202 | 56 | 18 | 1.7 | 2.6 | 0.00 | 0.00 | 0.00 | 66 | 1015.7 |
| 20260508064659 | 56 | 54 | 2.6 | 2.6 | 0.00 | 0.00 | 0.00 | 64 | 1015.8 |
| 20260508064157 | 56 | 39 | 1.7 | 4.3 | 0.00 | 0.00 | 0.00 | 64 | 1015.8 |
| 20260508063654 | 56 | 341 | 2.6 | 3.5 | 0.00 | 0.00 | 0.00 | 63 | 1015.9 |
| 20260508063152 | 56 | 355 | 3.5 | 5.2 | 0.00 | 0.00 | 0.00 | 63 | 1015.7 |
| 20260508062649 | 56 | 9 | 0.0 | 4.3 | 0.00 | 0.00 | 0.00 | 65 | 1015.8 |
| 20260508062146 | 56 | 39 | 0.9 | 1.7 | 0.00 | 0.00 | 0.00 | 67 | 1015.7 |
| 20260508061643 | 56 | 92 | 1.7 | 4.3 | 0.00 | 0.00 | 0.00 | 63 | 1015.6 |
| 20260508061141 | 56 | 16 | 2.6 | 3.5 | 0.00 | 0.00 | 0.00 | 63 | 1015.6 |
| 20260508060638 | 56 | 82 | 0.0 | 2.6 | 0.00 | 0.00 | 0.00 | 64 | 1015.6 |
| 20260508060135 | 56 | 31 | 0.9 | 2.6 | 0.00 | 0.00 | 0.00 | 64 | 1015.7 |
| 20260508055630 | 57 | 354 | 1.7 | 2.6 | 0.00 | 0.00 | 0.00 | 62 | 1015.5 |
| 20260508055127 | 57 | 336 | 1.7 | 3.5 | 0.00 | 0.00 | 0.00 | 61 | 1015.7 |
| 20260508054624 | 56 | 43 | 1.7 | 2.6 | 0.00 | 0.00 | 0.00 | 61 | 1015.7 |
| 20260508054121 | 56 | 0 | 1.7 | 2.6 | 0.00 | 0.00 | 0.00 | 65 | 1015.5 |
| 20260508053618 | 57 | 343 | 1.7 | 2.6 | 0.00 | 0.00 | 0.00 | 61 | 1015.7 |
| 20260508053116 | 57 | 55 | 3.5 | 3.5 | 0.00 | 0.00 | 0.00 | 63 | 1015.6 |
| 20260508052613 | 57 | 23 | 0.9 | 2.6 | 0.00 | 0.00 | 0.00 | 60 | 1015.6 |
| 20260508052110 | 57 | 343 | 0.9 | 1.7 | 0.00 | 0.00 | 0.00 | 63 | 1015.5 |
| 20260508051606 | 57 | 30 | 2.6 | 3.5 | 0.00 | 0.00 | 0.00 | 61 | 1015.5 |
| 20260508051102 | 57 | 338 | 1.7 | 3.5 | 0.00 | 0.00 | 0.00 | 59 | 1015.5 |
| 20260508050558 | 57 | 4 | 3.5 | 4.3 | 0.00 | 0.00 | 0.00 | 59 | 1015.4 |
| 20260508050056 | 57 | 43 | 2.6 | 3.5 | 0.00 | 0.00 | 0.00 | 59 | 1015.4 |
| 20260508045551 | 57 | 342 | 2.6 | 3.5 | 0.00 | 0.00 | 0.00 | 63 | 1015.5 |
| 20260508045049 | 57 | 46 | 2.6 | 2.6 | 0.00 | 0.00 | 0.00 | 61 | 1015.4 |
| 20260508044546 | 57 | 142 | 4.3 | 4.3 | 0.00 | 0.00 | 0.00 | 60 | 1015.2 |
| 20260508044042 | 57 | 48 | 2.6 | 4.3 | 0.00 | 0.00 | 0.00 | 61 | 1015.0 |
| 20260508043539 | 57 | 17 | 2.6 | 3.5 | 0.00 | 0.00 | 0.00 | 61 | 1014.9 |
| 20260508043037 | 57 | 51 | 2.6 | 2.6 | 0.00 | 0.00 | 0.00 | 64 | 1015.0 |
| 20260508042533 | 57 | 9 | 0.9 | 2.6 | 0.00 | 0.00 | 0.00 | 60 | 1015.1 |
| 20260508042031 | 57 | 331 | 3.5 | 3.5 | 0.00 | 0.00 | 0.00 | 60 | 1014.8 |
| 20260508041527 | 56 | 68 | 2.6 | 2.6 | 0.00 | 0.00 | 0.00 | 61 | 1014.9 |
| 20260508041023 | 56 | 276 | 1.7 | 2.6 | 0.00 | 0.00 | 0.00 | 64 | 1014.8 |
| 20260508040520 | 56 | 51 | 2.6 | 3.5 | 0.00 | 0.00 | 0.00 | 63 | 1015.0 |
| 20260508040018 | 56 | 42 | 1.7 | 2.6 | 0.00 | 0.34 | 0.34 | 68 | 1014.9 |
| 20260508035515 | 55 | 28 | 2.6 | 5.2 | 0.00 | 0.34 | 0.34 | 64 | 1015.1 |
| 20260508035012 | 55 | 30 | 1.7 | 3.5 | 0.00 | 0.34 | 0.34 | 65 | 1014.9 |
| 20260508034509 | 55 | 339 | 1.7 | 3.5 | 0.00 | 0.34 | 0.34 | 67 | 1015.2 |
| 20260508034006 | 55 | 38 | 1.7 | 2.6 | 0.00 | 0.34 | 0.34 | 68 | 1015.1 |
| 20260508033504 | 54 | 54 | 2.6 | 3.5 | 0.00 | 0.34 | 0.34 | 70 | 1015.0 |
| 20260508033001 | 54 | 102 | 2.6 | 7.8 | 0.00 | 0.34 | 0.34 | 70 | 1015.4 |
| 20260508032458 | 54 | 111 | 1.7 | 3.5 | 0.00 | 0.34 | 0.34 | 73 | 1015.1 |
| 20260508031955 | 55 | 21 | 2.6 | 4.3 | 0.00 | 0.34 | 0.34 | 69 | 1014.9 |
| 20260508031453 | 55 | 131 | 0.9 | 1.7 | 0.00 | 0.34 | 0.34 | 70 | 1015.1 |
| 20260508030947 | 55 | 73 | 1.7 | 2.6 | 0.00 | 0.34 | 0.34 | 72 | 1015.2 |
| 20260508030445 | 55 | 63 | 1.7 | 2.6 | 0.00 | 0.34 | 0.34 | 68 | 1015.4 |
| 20260508025942 | 56 | 68 | 2.6 | 2.6 | 0.00 | 0.34 | 0.34 | 69 | 1015.2 |
| 20260508025439 | 56 | 67 | 2.6 | 3.5 | 0.00 | 0.34 | 0.34 | 64 | 1014.9 |
| 20260508024936 | 56 | 44 | 1.7 | 2.6 | 0.00 | 0.34 | 0.34 | 65 | 1015.1 |
| 20260508024432 | 56 | 77 | 1.7 | 1.7 | 0.00 | 0.34 | 0.34 | 69 | 1014.8 |
| 20260508023929 | 56 | 70 | 1.7 | 1.7 | 0.00 | 0.34 | 0.34 | 69 | 1014.7 |
| 20260508023426 | 57 | 25 | 1.7 | 2.6 | 0.00 | 0.34 | 0.34 | 67 | 1014.7 |
| 20260508022923 | 57 | 3 | 1.7 | 2.6 | 0.00 | 0.34 | 0.34 | 64 | 1014.5 |
| 20260508022418 | 57 | 343 | 2.6 | 3.5 | 0.00 | 0.34 | 0.34 | 65 | 1014.7 |
| 20260508021915 | 57 | 56 | 2.6 | 2.6 | 0.00 | 0.34 | 0.34 | 64 | 1014.7 |
| 20260508021412 | 57 | 31 | 2.6 | 3.5 | 0.00 | 0.34 | 0.34 | 65 | 1014.7 |
| 20260508020907 | 56 | 301 | 1.7 | 2.6 | 0.00 | 0.34 | 0.34 | 66 | 1014.4 |
| 20260508020406 | 56 | 43 | 1.7 | 2.6 | 0.00 | 0.34 | 0.34 | 67 | 1014.5 |
| 20260508015902 | 56 | 344 | 1.7 | 2.6 | 0.00 | 0.34 | 0.34 | 66 | 1014.3 |
| 20260508015400 | 57 | 8 | 2.6 | 2.6 | 0.00 | 0.34 | 0.34 | 68 | 1014.3 |
| 20260508014856 | 57 | 340 | 1.7 | 3.5 | 0.00 | 0.34 | 0.34 | 66 | 1014.4 |
| 20260508014354 | 57 | 47 | 2.6 | 3.5 | 0.00 | 0.34 | 0.34 | 66 | 1014.1 |
| 20260508013849 | 57 | 5 | 1.7 | 3.5 | 0.00 | 0.34 | 0.34 | 65 | 1014.3 |
| 20260508013346 | 57 | 305 | 3.5 | 3.5 | 0.00 | 0.34 | 0.34 | 63 | 1014.1 |
| 20260508012843 | 57 | 2 | 2.6 | 4.3 | 0.00 | 0.34 | 0.34 | 63 | 1014.0 |
| 20260508012340 | 57 | 337 | 3.5 | 4.3 | 0.00 | 0.34 | 0.34 | 64 | 1013.8 |
| 20260508011838 | 57 | 344 | 3.5 | 5.2 | 0.00 | 0.34 | 0.34 | 65 | 1013.7 |
| 20260508011335 | 57 | 31 | 1.7 | 3.5 | 0.00 | 0.34 | 0.34 | 66 | 1013.6 |
| 20260508010832 | 58 | 66 | 3.5 | 3.5 | 0.00 | 0.34 | 0.34 | 63 | 1013.7 |
| 20260508010330 | 58 | 133 | 3.5 | 4.3 | 0.00 | 0.34 | 0.34 | 62 | 1013.5 |
| 20260508005827 | 58 | 40 | 1.7 | 4.3 | 0.00 | 0.34 | 0.34 | 64 | 1013.3 |
| 20260508005323 | 57 | 302 | 4.3 | 7.0 | 0.00 | 0.34 | 0.34 | 63 | 1013.3 |
| 20260508004820 | 57 | 57 | 2.6 | 5.2 | 0.00 | 0.34 | 0.34 | 66 | 1013.3 |
| 20260508004316 | 57 | 64 | 2.6 | 3.5 | 0.00 | 0.34 | 0.34 | 65 | 1013.1 |
| 20260508003812 | 57 | 6 | 1.7 | 2.6 | 0.00 | 0.34 | 0.34 | 65 | 1013.2 |
| 20260508003310 | 57 | 131 | 2.6 | 6.1 | 0.00 | 0.34 | 0.34 | 64 | 1013.0 |
| 20260508002806 | 58 | 49 | 2.6 | 5.2 | 0.00 | 0.34 | 0.34 | 66 | 1012.9 |
| 20260508002306 | 58 | 60 | 1.7 | 4.3 | 0.00 | 0.34 | 0.34 | 65 | 1012.9 |
| 20260508001759 | 58 | 26 | 1.7 | 3.5 | 0.00 | 0.34 | 0.34 | 64 | 1012.9 |
| 20260508001255 | 58 | 341 | 1.7 | 4.3 | 0.00 | 0.34 | 0.34 | 67 | 1012.7 |
| 20260508000751 | 58 | 60 | 3.5 | 5.2 | 0.00 | 0.34 | 0.34 | 64 | 1012.7 |
| 20260508000250 | 58 | 70 | 1.7 | 4.3 | 0.00 | 0.34 | 0.34 | 63 | 1012.7 |
| 20260507235745 | 58 | 112 | 3.5 | 5.2 | 0.00 | 0.34 | 0.34 | 63 | 1012.7 |
| 20260507235243 | 58 | 9 | 1.7 | 2.6 | 0.00 | 0.34 | 0.34 | 67 | 1013.2 |
| 20260507234739 | 58 | 61 | 1.7 | 2.6 | 0.00 | 0.34 | 0.34 | 66 | 1013.3 |
| 20260507234236 | 58 | 278 | 1.7 | 3.5 | 0.00 | 0.34 | 0.34 | 66 | 1013.5 |
| 20260507233733 | 58 | 66 | 2.6 | 3.5 | 0.00 | 0.34 | 0.34 | 69 | 1013.3 |
| 20260507233231 | 59 | 268 | 0.0 | 3.5 | 0.00 | 0.34 | 0.34 | 66 | 1013.1 |
| 20260507232728 | 59 | 85 | 1.7 | 2.6 | 0.00 | 0.34 | 0.34 | 66 | 1013.2 |
| 20260507232225 | 59 | 49 | 1.7 | 2.6 | 0.00 | 0.34 | 0.34 | 65 | 1012.9 |
| 20260507231721 | 59 | 78 | 1.7 | 5.2 | 0.00 | 0.34 | 0.34 | 66 | 1012.9 |
| 20260507231218 | 60 | 49 | 0.0 | 4.3 | 0.00 | 0.34 | 0.34 | 66 | 1013.0 |
| 20260507230715 | 60 | 70 | 0.0 | 6.1 | 0.00 | 0.34 | 0.34 | 65 | 1013.0 |
| 20260507230213 | 60 | 40 | 1.7 | 3.5 | 0.00 | 0.34 | 0.34 | 68 | 1012.9 |
| 20260507225711 | 60 | 0 | 1.7 | 4.3 | 0.00 | 0.34 | 0.34 | 66 | 1012.7 |
| 20260507225208 | 60 | 57 | 1.7 | 4.3 | 0.00 | 0.34 | 0.34 | 65 | 1012.5 |
| 20260507224704 | 60 | 63 | 2.6 | 2.6 | 0.00 | 0.34 | 0.34 | 67 | 1012.4 |
| 20260507224200 | 60 | 67 | 0.9 | 5.2 | 0.00 | 0.34 | 0.34 | 66 | 1012.4 |
| 20260507223657 | 60 | 0 | 1.7 | 8.7 | 0.00 | 0.34 | 0.34 | 63 | 1012.6 |
| 20260507223154 | 61 | 305 | 2.6 | 9.6 | 0.00 | 0.34 | 0.34 | 63 | 1012.3 |
| 20260507222651 | 61 | 323 | 1.7 | 13.0 | 0.00 | 0.34 | 0.34 | 63 | 1012.0 |
| 20260507222147 | 62 | 314 | 6.1 | 8.7 | 0.00 | 0.34 | 0.34 | 63 | 1011.8 |
| 20260507221644 | 62 | 293 | 7.0 | 9.6 | 0.00 | 0.34 | 0.34 | 62 | 1011.6 |
| 20260507221140 | 63 | 291 | 9.6 | 12.2 | 0.00 | 0.34 | 0.34 | 61 | 1011.6 |
| 20260507220637 | 63 | 326 | 6.1 | 8.7 | 0.00 | 0.34 | 0.34 | 63 | 1011.6 |
| 20260507220135 | 64 | 340 | 2.6 | 9.6 | 0.00 | 0.34 | 0.34 | 61 | 1011.5 |
| 20260507215631 | 64 | 305 | 5.2 | 11.3 | 0.00 | 0.34 | 0.34 | 62 | 1011.3 |
| 20260507215129 | 65 | 1 | 2.6 | 6.1 | 0.00 | 0.34 | 0.34 | 61 | 1011.3 |
| 20260507214626 | 65 | 23 | 2.6 | 7.8 | 0.00 | 0.34 | 0.34 | 61 | 1011.1 |
| 20260507214122 | 66 | 345 | 3.5 | 11.3 | 0.00 | 0.34 | 0.34 | 61 | 1011.3 |
| 20260507213618 | 66 | 20 | 2.6 | 10.4 | 0.00 | 0.34 | 0.34 | 59 | 1011.0 |
| 20260507213116 | 67 | 339 | 5.2 | 7.0 | 0.00 | 0.34 | 0.34 | 58 | 1010.9 |
| 20260507212611 | 68 | 357 | 3.5 | 7.8 | 0.00 | 0.34 | 0.34 | 60 | 1010.8 |
| 20260507212108 | 68 | 357 | 2.6 | 8.7 | 0.00 | 0.34 | 0.34 | 58 | 1010.7 |
| 20260507211605 | 69 | 313 | 4.3 | 9.6 | 0.00 | 0.34 | 0.34 | 57 | 1010.7 |
| 20260507211101 | 69 | 22 | 2.6 | 4.3 | 0.00 | 0.34 | 0.34 | 60 | 1010.2 |
| 20260507210559 | 69 | 2 | 1.7 | 7.0 | 0.00 | 0.34 | 0.34 | 57 | 1010.2 |